Total_Precipitation_Accumulation
0.00 0.00 0.02 0.08 0.20 0.41 0.56 0.36 0.27 0.17 0.14 0.14 0.11 0.09 0.05 0.06 0.13 0.14 0.04 0.01 0.00 0.00 0.00 0.01 0.01 0.01 0.01 0.02 0.04 0.06 0.08 0.09 0.10 0.10 0.10 0.07 0.04 0.03 0.01 0.01 0.00 0.01 0.01 0.02 0.02 0.02 0.02 0.01 0.01
0.00 0.00 0.02 0.08 0.19 0.52 0.69 0.31 0.21 0.20 0.13 0.17 0.13 0.05 0.03 0.01 0.01 0.01 0.02 0.01 0.00 0.00 0.00 0.00 0.01 0.01 0.01 0.01 0.02 0.04 0.06 0.07 0.08 0.08 0.07 0.05 0.03 0.02 0.02 0.01 0.01 0.02 0.03 0.03 0.03 0.03 0.02 0.01 0.01
0.00 0.00 0.01 0.04 0.12 0.34 0.44 0.22 0.18 0.20 0.20 0.29 0.32 0.12 0.04 0.02 0.01 0.01 0.01 0.00 0.00 0.00 0.00 0.01 0.01 0.01 0.00 0.01 0.02 0.03 0.04 0.04 0.05 0.05 0.05 0.04 0.03 0.02 0.02 0.02 0.02 0.03 0.04 0.05 0.04 0.04 0.03 0.02 0.01
0.00 0.01 0.01 0.02 0.07 0.17 0.24 0.16 0.21 0.22 0.26 0.32 0.31 0.17 0.06 0.03 0.01 0.01 0.00 0.00 0.00 0.00 0.00 0.01 0.01 0.01 0.01 0.01 0.02 0.02 0.03 0.04 0.03 0.03 0.03 0.02 0.02 0.02 0.03 0.03 0.03 0.04 0.06 0.07 0.06 0.06 0.05 0.03 0.01
0.00 0.01 0.01 0.01 0.04 0.08 0.11 0.09 0.15 0.21 0.33 0.43 0.34 0.25 0.11 0.05 0.02 0.01 0.01 0.01 0.00 0.00 0.00 0.01 0.02 0.02 0.02 0.02 0.03 0.04 0.04 0.04 0.04 0.03 0.03 0.02 0.02 0.03 0.04 0.04 0.05 0.06 0.08 0.09 0.09 0.08 0.08 0.07 0.05
0.00 0.00 0.00 0.01 0.02 0.05 0.07 0.08 0.16 0.26 0.41 0.49 0.51 0.45 0.22 0.08 0.05 0.04 0.02 0.01 0.01 0.00 0.01 0.02 0.03 0.03 0.03 0.03 0.04 0.05 0.05 0.05 0.05 0.05 0.04 0.03 0.03 0.04 0.05 0.06 0.08 0.08 0.09 0.08 0.08 0.08 0.08 0.07 0.07
0.00 0.00 0.00 0.00 0.01 0.03 0.06 0.11 0.20 0.32 0.37 0.54 0.79 0.68 0.32 0.16 0.10 0.07 0.05 0.03 0.02 0.02 0.01 0.02 0.03 0.04 0.04 0.05 0.05 0.06 0.06 0.07 0.07 0.06 0.05 0.04 0.04 0.04 0.05 0.07 0.08 0.10 0.10 0.09 0.09 0.08 0.09 0.10 0.09
0.00 0.00 0.00 0.00 0.00 0.02 0.06 0.12 0.22 0.33 0.56 0.74 0.72 0.61 0.47 0.26 0.19 0.15 0.09 0.08 0.07 0.06 0.04 0.04 0.08 0.13 0.13 0.11 0.10 0.09 0.09 0.09 0.07 0.06 0.05 0.05 0.05 0.07 0.10 0.10 0.11 0.13 0.14 0.14 0.15 0.15 0.17 0.18 0.16
0.00 0.00 0.00 0.00 0.00 0.03 0.09 0.18 0.23 0.28 0.46 0.58 0.61 0.54 0.34 0.21 0.24 0.25 0.15 0.11 0.09 0.07 0.08 0.10 0.15 0.18 0.21 0.22 0.21 0.21 0.21 0.21 0.17 0.17 0.15 0.13 0.14 0.20 0.32 0.32 0.34 0.32 0.32 0.35 0.34 0.35 0.38 0.38 0.26
0.00 0.00 0.00 0.00 0.00 0.03 0.09 0.16 0.27 0.31 0.53 0.81 0.83 0.84 0.48 0.36 0.33 0.28 0.21 0.17 0.15 0.16 0.22 0.24 0.25 0.25 0.26 0.29 0.42 0.49 0.51 0.57 0.51 0.52 0.52 0.49 0.47 0.42 0.40 0.55 0.62 0.69 0.80 0.79 0.78 0.93 0.82 0.61 0.41
0.00 0.00 0.00 0.00 0.00 0.01 0.03 0.09 0.12 0.27 0.61 0.99 0.95 0.90 0.63 0.50 0.40 0.38 0.34 0.33 0.31 0.30 0.29 0.29 0.31 0.37 0.45 0.54 0.60 0.67 0.75 0.88 0.97 1.01 1.02 1.06 0.94 0.76 0.70 0.92 1.04 1.00 1.03 0.92 1.15 1.41 1.02 0.93 0.92
0.00 0.00 0.00 0.00 0.00 0.01 0.03 0.09 0.18 0.31 0.71 0.92 0.77 0.60 0.46 0.46 0.52 0.52 0.56 0.58 0.59 0.49 0.48 0.53 0.52 0.54 0.59 0.66 0.67 0.72 0.74 0.84 0.90 1.01 1.15 1.30 1.30 1.16 1.16 1.29 1.16 1.09 1.10 1.23 1.33 1.45 1.29 1.20 1.20
0.00 0.00 0.00 0.00 0.00 0.01 0.04 0.13 0.25 0.36 0.62 0.55 0.41 0.39 0.56 0.64 0.70 0.70 0.72 0.70 0.69 0.77 0.88 0.92 0.89 0.84 0.78 0.71 0.68 0.70 0.68 0.66 0.68 0.80 1.06 1.25 1.33 1.37 1.46 1.30 1.14 0.99 1.22 1.46 1.48 1.35 1.42 1.41 1.50
0.00 0.00 0.01 0.01 0.01 0.01 0.03 0.08 0.28 0.38 0.49 0.51 0.43 0.48 0.73 0.97 0.93 0.85 0.89 0.98 0.99 1.07 1.22 1.24 1.30 1.26 1.06 0.86 0.74 0.71 0.66 0.69 0.75 0.83 0.95 1.14 1.24 1.31 1.35 1.28 1.17 1.12 1.27 1.44 1.44 1.38 1.53 1.57 1.53
0.00 0.03 0.09 0.07 0.03 0.03 0.04 0.14 0.36 0.52 0.51 0.63 0.62 0.67 0.85 0.99 0.87 0.96 1.04 1.12 1.26 1.47 1.69 1.82 1.83 1.73 1.59 1.38 1.10 0.91 0.82 0.81 0.86 0.91 0.85 0.90 1.01 1.04 1.14 1.14 1.12 1.17 1.22 1.25 1.22 1.21 1.36 1.30 1.18
0.01 0.07 0.21 0.15 0.06 0.06 0.10 0.47 0.67 0.58 0.47 0.62 0.75 0.83 0.96 1.07 1.03 1.11 1.21 1.34 1.65 1.98 2.40 2.59 2.52 2.30 1.91 1.58 1.36 1.21 1.13 1.08 0.96 0.88 0.77 0.66 0.72 0.79 0.86 0.84 0.88 0.94 0.99 1.00 0.95 0.97 1.05 1.10 1.16
0.02 0.07 0.18 0.17 0.12 0.09 0.17 0.60 0.64 0.37 0.44 0.60 0.81 0.97 1.04 1.04 1.15 1.33 1.51 1.73 2.33 3.06 3.53 3.42 2.96 2.60 2.06 1.59 1.36 1.32 1.36 1.28 1.11 0.99 0.86 0.71 0.66 0.70 0.76 0.74 0.73 0.71 0.73 0.76 0.72 0.78 0.87 0.92 0.97
0.02 0.06 0.13 0.19 0.14 0.19 0.28 0.38 0.49 0.48 0.63 0.76 0.85 0.85 0.92 0.98 1.13 1.32 1.55 1.86 2.55 3.52 4.16 4.05 3.37 2.66 2.13 1.78 1.55 1.40 1.35 1.22 1.06 0.97 0.85 0.70 0.62 0.61 0.59 0.57 0.54 0.50 0.51 0.55 0.58 0.67 0.75 0.77 0.83
0.02 0.05 0.12 0.20 0.15 0.22 0.30 0.40 0.53 0.64 0.83 0.83 0.79 0.71 0.74 0.90 1.09 1.29 1.51 1.84 2.24 2.77 3.20 3.17 2.54 2.03 1.72 1.44 1.08 0.91 0.89 0.80 0.71 0.69 0.64 0.61 0.56 0.52 0.47 0.41 0.40 0.37 0.36 0.38 0.40 0.47 0.55 0.59 0.66
0.03 0.06 0.12 0.16 0.13 0.12 0.23 0.47 0.60 0.67 0.78 0.74 0.69 0.55 0.58 0.90 1.25 1.53 1.80 1.87 1.66 1.74 1.79 1.40 1.11 0.93 0.79 0.69 0.52 0.42 0.38 0.36 0.34 0.35 0.35 0.33 0.37 0.40 0.39 0.37 0.36 0.35 0.34 0.33 0.36 0.41 0.44 0.47 0.54
0.07 0.08 0.09 0.15 0.15 0.19 0.31 0.60 0.73 0.67 0.63 0.53 0.52 0.57 0.92 1.35 1.62 1.86 1.70 1.33 1.14 1.07 0.92 0.62 0.48 0.48 0.43 0.34 0.26 0.23 0.21 0.21 0.21 0.22 0.22 0.22 0.23 0.26 0.29 0.33 0.36 0.35 0.31 0.30 0.32 0.34 0.35 0.35 0.38
0.07 0.06 0.03 0.04 0.11 0.30 0.43 0.82 0.92 0.78 0.69 0.46 0.47 0.77 1.26 1.53 1.71 1.53 0.95 0.55 0.48 0.48 0.48 0.52 0.53 0.44 0.33 0.28 0.20 0.15 0.13 0.13 0.13 0.15 0.15 0.17 0.16 0.16 0.18 0.24 0.29 0.30 0.31 0.31 0.25 0.26 0.31 0.31 0.28
0.04 0.03 0.03 0.05 0.11 0.28 0.50 0.92 1.07 0.82 0.63 0.41 0.33 0.43 0.77 0.99 0.87 0.51 0.24 0.15 0.19 0.29 0.47 0.69 0.70 0.49 0.34 0.29 0.24 0.22 0.20 0.18 0.17 0.17 0.18 0.20 0.20 0.20 0.17 0.17 0.22 0.27 0.33 0.38 0.34 0.32 0.30 0.29 0.26
0.03 0.04 0.09 0.17 0.28 0.55 0.59 0.74 0.90 0.73 0.59 0.43 0.26 0.30 0.52 0.54 0.33 0.17 0.11 0.15 0.22 0.27 0.34 0.43 0.52 0.59 0.53 0.47 0.37 0.34 0.33 0.31 0.28 0.26 0.25 0.25 0.26 0.28 0.27 0.27 0.30 0.33 0.33 0.34 0.36 0.39 0.38 0.36 0.33
0.03 0.04 0.24 0.55 0.71 0.68 0.46 0.61 0.81 0.50 0.37 0.27 0.15 0.13 0.15 0.16 0.16 0.18 0.19 0.22 0.20 0.16 0.15 0.16 0.20 0.31 0.37 0.40 0.42 0.42 0.41 0.37 0.32 0.28 0.24 0.27 0.25 0.27 0.29 0.29 0.33 0.37 0.37 0.34 0.32 0.33 0.38 0.45 0.45
0.02 0.02 0.08 0.15 0.21 0.29 0.38 0.69 0.73 0.43 0.21 0.09 0.04 0.03 0.02 0.03 0.05 0.07 0.09 0.08 0.07 0.07 0.07 0.07 0.07 0.09 0.12 0.14 0.18 0.22 0.28 0.27 0.26 0.30 0.24 0.25 0.29 0.29 0.27 0.25 0.25 0.28 0.31 0.32 0.30 0.26 0.27 0.34 0.43
0.01 0.01 0.02 0.03 0.05 0.19 0.45 0.63 0.46 0.25 0.13 0.05 0.03 0.02 0.01 0.01 0.01 0.01 0.02 0.03 0.04 0.03 0.04 0.04 0.04 0.04 0.04 0.05 0.05 0.06 0.11 0.15 0.16 0.17 0.16 0.17 0.24 0.26 0.24 0.22 0.20 0.20 0.23 0.26 0.27 0.26 0.27 0.27 0.28
0.02 0.01 0.01 0.03 0.06 0.13 0.32 0.63 0.61 0.28 0.17 0.07 0.03 0.02 0.02 0.01 0.01 0.00 0.01 0.01 0.01 0.02 0.02 0.03 0.04 0.03 0.03 0.02 0.02 0.02 0.04 0.08 0.10 0.11 0.12 0.15 0.18 0.21 0.20 0.17 0.14 0.14 0.15 0.17 0.22 0.25 0.28 0.33 0.36
0.03 0.02 0.03 0.04 0.05 0.07 0.18 0.34 0.27 0.20 0.13 0.05 0.02 0.00 0.00 0.00 0.00 0.01 0.00 0.00 0.01 0.01 0.01 0.02 0.02 0.02 0.02 0.02 0.01 0.01 0.01 0.02 0.06 0.11 0.15 0.18 0.20 0.20 0.20 0.17 0.15 0.12 0.12 0.15 0.18 0.21 0.27 0.33 0.42
0.03 0.03 0.03 0.04 0.04 0.05 0.09 0.15 0.14 0.13 0.09 0.04 0.01 0.00 0.00 0.00 0.00 0.00 0.00 0.00 0.01 0.01 0.01 0.01 0.01 0.01 0.01 0.00 0.00 0.00 0.00 0.00 0.01 0.03 0.08 0.14 0.20 0.21 0.21 0.20 0.17 0.12 0.10 0.12 0.14 0.16 0.21 0.29 0.39